TimeMDT,TemperatureF,Dew PointF,Humidity,Sea Level PressureIn,VisibilityMPH,Wind Direction,Wind SpeedMPH,Gust SpeedMPH,PrecipitationIn,Events,Conditions,WindDirDegrees,DateUTC
12:51 AM,52.0,41.0,66,30.00,10.0,WSW,4.6,-,N/A,,Clear,240,2012-10-14 06:51:00
1:51 AM,54.0,39.9,59,30.00,10.0,NNE,4.6,-,N/A,,Clear,20,2012-10-14 07:51:00
2:51 AM,53.1,39.9,61,30.04,10.0,North,4.6,-,N/A,,Clear,360,2012-10-14 08:51:00
3:51 AM,53.1,39.9,61,30.04,10.0,North,6.9,-,N/A,,Clear,350,2012-10-14 09:51:00
4:51 AM,50.0,41.0,71,30.07,10.0,WNW,4.6,-,N/A,,Clear,290,2012-10-14 10:51:00
5:51 AM,50.0,41.0,71,30.09,10.0,Calm,Calm,-,N/A,,Clear,0,2012-10-14 11:51:00
6:51 AM,48.9,41.0,74,30.14,10.0,Calm,Calm,-,N/A,,Clear,0,2012-10-14 12:51:00
7:51 AM,51.1,41.0,68,30.15,10.0,NNW,4.6,-,N/A,,Clear,340,2012-10-14 13:51:00
8:51 AM,57.0,42.1,57,30.17,10.0,Calm,Calm,-,N/A,,Clear,0,2012-10-14 14:51:00
9:51 AM,60.1,43.0,53,30.19,10.0,East,3.5,-,N/A,,Clear,90,2012-10-14 15:51:00
10:51 AM,68.0,42.1,39,30.17,10.0,Calm,Calm,-,N/A,,Clear,0,2012-10-14 16:51:00
11:51 AM,72.0,37.9,29,30.16,10.0,Calm,Calm,-,N/A,,Clear,0,2012-10-14 17:51:00
12:51 PM,72.0,39.0,30,30.16,10.0,South,5.8,-,N/A,,Clear,190,2012-10-14 18:51:00
1:51 PM,75.9,39.9,27,30.11,10.0,East,4.6,-,N/A,,Clear,80,2012-10-14 19:51:00
2:51 PM,75.9,37.9,25,30.10,10.0,NE,5.8,-,N/A,,Clear,40,2012-10-14 20:51:00
3:51 PM,77.0,37.0,24,30.08,10.0,WNW,3.5,-,N/A,,Clear,290,2012-10-14 21:51:00
4:51 PM,75.9,37.9,25,30.06,10.0,ESE,8.1,-,N/A,,Clear,120,2012-10-14 22:51:00
5:51 PM,75.0,37.9,26,30.05,10.0,SSE,6.9,-,N/A,,Clear,150,2012-10-14 23:51:00
6:51 PM,66.9,41.0,39,30.08,10.0,Calm,Calm,-,N/A,,Clear,0,2012-10-15 00:51:00
8:51 PM,60.1,46.9,62,30.11,10.0,SW,3.5,-,N/A,,Clear,220,2012-10-15 02:51:00
9:51 PM,57.9,46.9,67,30.11,10.0,SSW,4.6,-,N/A,,Clear,210,2012-10-15 03:51:00
10:51 PM,57.9,45.0,62,30.11,10.0,WSW,3.5,-,N/A,,Clear,240,2012-10-15 04:51:00
11:51 PM,55.0,46.9,74,30.10,10.0,Calm,Calm,-,N/A,,Clear,0,2012-10-15 05:51:00